Weather History for Erzurum, Turkey

Change the Weather History Date:

Sunday, August 18, 2013

  Actual Average Record
Temperature  
Mean Temperature 66 °F -  
Max Temperature 83 °F 75 °F 100 °F (1996)
Min Temperature 49 °F 48 °F 41 °F (2007)
Cooling Degree Days 1    
Growing Degree Days 16 (Base 50)    
Moisture  
Dew Point 48 °F    
Average Humidity 53    
Maximum Humidity 82    
Minimum Humidity 14    
Precipitation  
Precipitation 0.02 in 0.03 in - ()
Sea Level Pressure  
Sea Level Pressure 29.98 in    
Wind  
Wind Speed 5 mph ()    
Max Wind Speed 17 mph    
Max Gust Speed -    
Visibility 6.8 miles    
Events Rain    
Averages and records for this station are not official NWS values.
T = Trace of Precipitation, MM = Missing Value Source: Averaged Metar Reports

Daily Weather History Graph

Daily Weather History Graph

Search for Another Location

Airport:

Trip Planner

Search our weather history database for the weather conditions in past years. The results will help you decide how hot, cold, wet, or windy it might be!

Date:

Astronomy

Aug. 18, 2013 Rise Set
Actual Time 5:29 AM EEST 7:07 PM EEST
Civil Twilight 5:01 AM EEST 7:36 PM EEST
Nautical Twilight 4:26 AM EEST 8:11 PM EEST
Astronomical Twilight 3:49 AM EEST 8:47 PM EEST
Moon 4:56 PM EEST (8/18) 2:14 AM EEST (8/18)
Length of Visible Light 14h 35m
Length of Day
13h 38m
Waxing Gibbous, 90% of the Moon is Illuminated
Aug 18
Waxing Gibbous
Aug 21
Full
Aug 28
Last Quarter
Sep 5
New
Sep 12
First Quarter

Hourly Weather History & Observations

Time (EEST) Temp. Dew Point Humidity Pressure Visibility Wind Dir Wind Speed Gust Speed Precip Events Conditions
12:20 AM 57.2 °F 42.8 °F 59% 30.01 in - Variable 2.3 mph - N/A   Clear
12:50 AM 55.4 °F 41.0 °F 58% 30.04 in - SE 3.5 mph - N/A   Clear
1:20 AM 57.2 °F 44.6 °F 63% 30.04 in - ESE 4.6 mph - N/A   Clear
1:50 AM 60.8 °F 48.2 °F 63% 30.01 in - Variable 2.3 mph - N/A   Clear
2:20 AM 57.2 °F 46.4 °F 67% 30.01 in - Variable 3.5 mph - N/A   Clear
2:50 AM 57.2 °F 50.0 °F 77% 30.01 in - Variable 3.5 mph - N/A   Clear
3:00 AM 57 °F 49 °F 65%  in 12 mi SSE 4.6 mph - -  
3:20 AM 53.6 °F 48.2 °F 82% 30.01 in - Variable 3.5 mph - N/A   Clear
3:50 AM 51.8 °F 46.4 °F 82% 30.01 in - Variable 2.3 mph - N/A   Clear
4:50 AM 51.8 °F 46.4 °F 82% 30.01 in - NNW 4.6 mph - N/A   Clear
5:20 AM 53.6 °F 46.4 °F 77% 30.01 in - West 2.3 mph - N/A   Clear
5:50 AM 51.8 °F 46.4 °F 82% 30.01 in - SSW 3.5 mph - N/A   Clear
6:20 AM 53.6 °F 46.4 °F 77% 30.04 in - Variable 2.3 mph - N/A   Clear
6:50 AM 55.4 °F 48.2 °F 77% 30.04 in - WNW 3.5 mph - N/A   Clear
7:20 AM 59.0 °F 50.0 °F 72% 30.01 in 6.2 mi West 4.6 mph - N/A   Partly Cloudy
7:50 AM 64.4 °F 51.8 °F 64% 30.01 in 6.2 mi WSW 4.6 mph - N/A   Scattered Clouds
8:20 AM 68.0 °F 53.6 °F 60% 30.01 in 6.2 mi Variable 2.3 mph - N/A   Scattered Clouds
8:50 AM 69.8 °F 53.6 °F 56% 30.01 in 6.2 mi NNE 4.6 mph - N/A   Scattered Clouds
9:00 AM 69 °F 52 °F 45%  in 12 mi NNE 4.6 mph - -   Partly Cloudy
9:20 AM 69.8 °F 53.6 °F 56% 29.98 in 6.2 mi North 6.9 mph - N/A   Scattered Clouds
9:50 AM 73.4 °F 53.6 °F 50% 29.98 in 6.2 mi Variable 4.6 mph - N/A   Scattered Clouds
10:20 AM 75.2 °F 51.8 °F 44% 29.98 in 6.2 mi NNW 4.6 mph - N/A   Scattered Clouds
10:50 AM 77.0 °F 50.0 °F 39% 29.98 in 6.2 mi NNE 6.9 mph - N/A   Scattered Clouds
11:20 AM 75.2 °F 50.0 °F 41% 29.95 in 6.2 mi Variable 5.8 mph - N/A   Scattered Clouds
11:50 AM 75.2 °F 50.0 °F 41% 29.95 in 6.2 mi WNW 8.1 mph - N/A   Scattered Clouds
12:20 PM 78.8 °F 48.2 °F 34% 29.95 in 6.2 mi NW 9.2 mph - N/A   Scattered Clouds
12:50 PM 78.8 °F 46.4 °F 32% 29.95 in 6.2 mi West 11.5 mph - N/A   Scattered Clouds
1:20 PM 78.8 °F 46.4 °F 32% 29.92 in 6.2 mi West 13.8 mph - N/A   Scattered Clouds
1:50 PM 78.8 °F 44.6 °F 30% 29.92 in 6.2 mi West 11.5 mph - N/A   Scattered Clouds
2:20 PM 82.4 °F 42.8 °F 25% 29.92 in 6.2 mi West 10.4 mph - N/A   Scattered Clouds
2:50 PM 82.4 °F 42.8 °F 25% 29.92 in 6.2 mi West 11.5 mph - N/A   Scattered Clouds
3:00 PM 82 °F 41 °F 14%  in 12 mi West 11.5 mph - -   Partly Cloudy
3:20 PM 80.6 °F 41.0 °F 24% 29.89 in 6.2 mi West 11.5 mph - N/A   Scattered Clouds
3:50 PM 82.4 °F 41.0 °F 23% 29.89 in 6.2 mi West 12.7 mph - N/A   Scattered Clouds
4:20 PM 80.6 °F 41.0 °F 24% 29.89 in 6.2 mi West 16.1 mph - N/A   Scattered Clouds
4:50 PM 78.8 °F 44.6 °F 30% 29.92 in 6.2 mi WNW 11.5 mph - N/A   Scattered Clouds
5:20 PM 77.0 °F 46.4 °F 34% 29.92 in 6.2 mi NW 9.2 mph - N/A   Scattered Clouds
5:45 PM 73.4 °F 46.4 °F 38% 29.92 in 6.2 mi NW 16.1 mph - N/A Rain Light Rain Showers
5:50 PM 71.6 °F 53.6 °F 53% 29.92 in 6.2 mi NW 17.3 mph - N/A Rain Light Rain Showers
6:20 PM 71.6 °F 51.8 °F 50% 29.95 in 6.2 mi WNW 10.4 mph - N/A   Scattered Clouds
6:50 PM 71.6 °F 51.8 °F 50% 29.95 in 6.2 mi NW 3.5 mph - N/A   Scattered Clouds
7:20 PM 69.8 °F 50.0 °F 49% 29.98 in 6.2 mi NNW 5.8 mph - N/A   Scattered Clouds
7:50 PM 68.0 °F 50.0 °F 52% 29.98 in 6.2 mi NNW 5.8 mph - N/A   Scattered Clouds
8:20 PM 68.0 °F 48.2 °F 49% 29.98 in 6.2 mi NNW 9.2 mph - N/A   Scattered Clouds
8:50 PM 66.2 °F 46.4 °F 49% 30.01 in 6.2 mi WSW 8.1 mph - N/A   Scattered Clouds
9:00 PM 67 °F 46 °F 35%  in 12 mi WSW 8.1 mph - -   Partly Cloudy
9:20 PM 64.4 °F 46.4 °F 52% 30.01 in 6.2 mi Variable 2.3 mph - N/A   Scattered Clouds
9:50 PM 62.6 °F 51.8 °F 68% 30.01 in 6.2 mi ENE 3.5 mph - N/A   Scattered Clouds
10:20 PM 62.6 °F 51.8 °F 68% 30.01 in 6.2 mi NE 6.9 mph - N/A   Scattered Clouds
10:50 PM 60.8 °F 53.6 °F 77% 30.01 in 6.2 mi Variable 2.3 mph - N/A   Scattered Clouds
11:20 PM 60.8 °F 53.6 °F 77% 30.04 in 6.2 mi NNE 8.1 mph - N/A   Scattered Clouds
11:50 PM 64.4 °F 50.0 °F 59% 30.04 in 6.2 mi NE 4.6 mph - N/A   Scattered Clouds